Total_Precipitation_Accumulation
1.55 1.69 1.76 1.78 1.76 1.64 1.62 1.54 1.42 1.20 1.06 0.91 0.80 0.71 0.71 0.78 1.06 1.02 0.86 0.80 0.69 0.60 0.53 0.48 0.44 0.40 0.44 0.51 0.59 0.65 0.69 0.69 0.68 0.66 0.60 0.54 0.50 0.48
1.51 1.62 1.63 1.64 1.66 1.59 1.54 1.56 1.46 1.23 1.07 0.95 0.84 0.80 0.89 0.87 1.03 0.91 0.96 1.05 0.80 0.66 0.59 0.56 0.48 0.39 0.33 0.31 0.31 0.34 0.38 0.41 0.46 0.49 0.47 0.45 0.45 0.43
1.02 1.13 1.33 1.52 1.57 1.55 1.57 1.59 1.55 1.38 1.16 1.08 0.90 0.89 1.02 1.02 1.02 0.95 0.99 1.05 0.86 0.74 0.59 0.53 0.50 0.42 0.37 0.32 0.29 0.26 0.26 0.27 0.30 0.34 0.39 0.39 0.38 0.37
0.83 0.84 0.94 1.16 1.30 1.41 1.46 1.48 1.51 1.49 1.32 1.26 1.18 0.98 0.96 1.02 1.13 1.19 1.11 1.07 1.03 1.02 0.88 0.67 0.57 0.49 0.41 0.35 0.31 0.26 0.24 0.24 0.25 0.26 0.30 0.36 0.39 0.39
0.78 0.80 0.85 0.95 1.09 1.17 1.27 1.36 1.43 1.53 1.48 1.27 1.31 1.27 1.09 1.07 1.10 1.18 1.22 1.27 1.18 1.14 1.18 1.02 0.81 0.68 0.59 0.49 0.41 0.34 0.29 0.28 0.30 0.31 0.32 0.34 0.36 0.36
0.76 0.83 0.85 0.85 0.95 1.16 1.29 1.35 1.38 1.46 1.54 1.45 1.38 1.38 1.25 1.15 1.14 1.16 1.29 1.37 1.35 1.18 1.10 1.07 1.02 0.88 0.74 0.63 0.52 0.45 0.41 0.37 0.35 0.35 0.37 0.39 0.37 0.36
0.66 0.67 0.76 0.83 0.85 0.98 1.14 1.36 1.37 1.44 1.50 1.53 1.44 1.32 1.22 1.14 1.09 1.07 1.16 1.35 1.39 1.36 1.29 1.13 1.02 0.87 0.76 0.69 0.64 0.58 0.51 0.47 0.44 0.44 0.46 0.46 0.46 0.44
0.66 0.69 0.69 0.70 0.72 0.75 0.78 1.02 1.20 1.30 1.37 1.36 1.38 1.29 1.17 1.10 1.16 1.14 1.09 1.15 1.27 1.29 1.17 1.24 1.19 1.02 0.88 0.77 0.80 0.81 0.74 0.67 0.58 0.53 0.52 0.53 0.54 0.55
0.60 0.69 0.74 0.71 0.77 0.85 0.81 0.84 0.93 0.99 1.09 1.17 1.18 1.14 1.12 1.07 1.13 1.15 1.10 1.04 0.96 1.06 1.06 1.13 1.18 1.07 0.95 0.84 0.83 0.78 0.75 0.70 0.64 0.58 0.53 0.51 0.53 0.56
0.60 0.61 0.72 0.78 0.83 0.98 0.97 1.03 0.96 0.85 0.83 0.87 0.97 1.01 0.98 1.08 1.15 1.28 1.29 1.15 1.05 1.08 1.05 1.01 1.00 0.93 0.87 0.85 0.85 0.71 0.64 0.64 0.62 0.59 0.55 0.51 0.49 0.49
0.57 0.60 0.72 0.82 0.95 1.04 1.09 1.12 1.01 0.91 0.93 1.00 1.05 1.08 1.09 1.16 1.21 1.25 1.28 1.23 1.15 1.12 1.03 0.90 0.84 0.84 0.84 0.80 0.78 0.79 0.72 0.66 0.62 0.60 0.57 0.55 0.55 0.59
0.61 0.62 0.83 0.84 0.91 0.95 1.01 1.11 1.12 0.99 0.91 0.93 0.97 1.00 0.99 1.06 1.20 1.22 1.29 1.31 1.18 1.12 1.02 0.87 0.83 0.92 0.98 0.86 0.73 0.69 0.69 0.73 0.71 0.66 0.63 0.61 0.63 0.62
0.56 0.60 0.57 0.68 0.70 0.80 0.90 0.97 1.17 1.04 0.96 0.97 0.95 0.88 0.85 0.89 0.98 1.11 1.23 1.27 1.18 1.02 0.93 0.89 0.87 0.89 0.86 0.81 0.75 0.69 0.65 0.65 0.66 0.65 0.66 0.68 0.71 0.68
0.37 0.49 0.48 0.54 0.59 0.67 0.69 0.85 1.01 0.98 0.93 0.98 0.96 0.89 0.81 0.80 0.82 0.87 0.99 1.04 1.00 0.96 0.92 0.83 0.79 0.76 0.73 0.66 0.65 0.68 0.68 0.64 0.64 0.65 0.64 0.73 0.76 0.80
0.22 0.37 0.44 0.49 0.48 0.50 0.62 0.78 0.83 0.89 1.02 0.97 0.96 0.89 0.82 0.79 0.71 0.73 0.81 0.88 0.85 0.81 0.79 0.78 0.81 0.79 0.74 0.64 0.55 0.54 0.61 0.64 0.63 0.64 0.65 0.66 0.63 0.67
0.18 0.32 0.44 0.50 0.49 0.48 0.55 0.67 0.73 0.86 0.99 0.91 0.87 0.82 0.75 0.74 0.70 0.68 0.72 0.75 0.78 0.75 0.73 0.71 0.82 0.93 0.89 0.81 0.75 0.67 0.64 0.63 0.62 0.67 0.69 0.68 0.65 0.63
0.23 0.42 0.56 0.58 0.57 0.53 0.56 0.65 0.64 0.62 0.71 0.70 0.72 0.73 0.70 0.67 0.63 0.57 0.58 0.60 0.62 0.61 0.61 0.59 0.58 0.65 0.71 0.74 0.76 0.74 0.75 0.75 0.75 0.80 0.80 0.73 0.66 0.64
0.41 0.61 0.72 0.79 0.77 0.69 0.64 0.62 0.57 0.55 0.56 0.59 0.66 0.65 0.60 0.61 0.60 0.54 0.53 0.53 0.54 0.53 0.50 0.46 0.45 0.51 0.59 0.60 0.52 0.51 0.54 0.56 0.60 0.69 0.74 0.73 0.65 0.60
0.71 0.76 0.78 0.80 0.81 0.71 0.59 0.52 0.42 0.37 0.40 0.46 0.48 0.49 0.49 0.49 0.51 0.50 0.49 0.47 0.45 0.43 0.41 0.39 0.38 0.40 0.47 0.49 0.44 0.36 0.41 0.46 0.51 0.56 0.59 0.58 0.53 0.52
0.77 0.79 0.85 0.82 0.76 0.61 0.45 0.36 0.27 0.24 0.26 0.28 0.28 0.26 0.30 0.33 0.37 0.42 0.44 0.42 0.38 0.36 0.36 0.37 0.39 0.40 0.43 0.45 0.41 0.33 0.32 0.40 0.46 0.49 0.49 0.51 0.50 0.55
0.41 0.47 0.50 0.48 0.42 0.33 0.24 0.19 0.13 0.12 0.13 0.15 0.17 0.18 0.21 0.22 0.22 0.27 0.33 0.38 0.38 0.36 0.35 0.34 0.36 0.40 0.40 0.42 0.39 0.32 0.30 0.36 0.41 0.40 0.42 0.48 0.51 0.52
0.14 0.15 0.15 0.14 0.12 0.10 0.09 0.08 0.08 0.09 0.09 0.10 0.14 0.16 0.18 0.19 0.18 0.19 0.22 0.25 0.28 0.31 0.33 0.34 0.35 0.37 0.36 0.38 0.37 0.32 0.27 0.26 0.33 0.43 0.44 0.43 0.41 0.40
0.05 0.06 0.06 0.05 0.04 0.04 0.04 0.05 0.06 0.07 0.07 0.08 0.09 0.10 0.12 0.15 0.17 0.19 0.20 0.21 0.22 0.25 0.27 0.29 0.33 0.36 0.37 0.36 0.35 0.33 0.29 0.27 0.26 0.31 0.39 0.52 0.48 0.38